Regional Weather Roundup
Issued by NWS

Home | Current Version | Previous Version | Graphics & Text | Print | Product List | Glossary On
Versions: 1 2 3 4 5 6 7 8 9 10 11 12 13 14 15 16 17 18 19 20 21 22 23 24 25 26 27 28 29 30 31 32 33 34 35 36 37 38 39 40 41 42 43 44 45 46 47 48 49 50
955
ASUS45 KCYS 220610
RWRWY

WYOMING REGIONAL WEATHER ROUNDUP
NATIONAL WEATHER SERVICE CHEYENNE WY
1200 AM MDT SUN APR 22 2018

NOTE:  "FAIR" INDICATES FEW OR NO CLOUDS BELOW 12,000 FEET
WITH NO SIGNIFICANT WEATHER AND/OR OBSTRUCTIONS TO VISIBILITY.

WYZ001-220700-
YELLOWSTONE NATIONAL PARK

CITY           SKY/WX    TMP DP  RH WIND       PRES   REMARKS
LK YELLOWSTONE   N/A     28  24  85 CALM      30.25S
6HR MIN TEMP:  28; 6HR MAX TEMP:  51;

W YELLOWSTONE  NOT AVBL

$$
WYZ002>013-054>058-071-098>099-220700-
NORTHERN WYOMING

CITY           SKY/WX    TMP DP  RH WIND       PRES   REMARKS
JACKSON        FAIR      37  26  64 NE3       30.20S
CODY           FAIR      57  26  30 W12G17    30.08S
GREYBULL       FAIR      50  37  61 SE7       30.03R
WORLAND        FAIR      46  33  60 NW3       30.04R
6HR MIN TEMP:  45; 6HR MAX TEMP:  70;

SHERIDAN       FAIR      41  36  82 CALM      30.01S
6HR MIN TEMP:  41; 6HR MAX TEMP:  69;

BUFFALO        FAIR      45  33  63 S7        30.07S
6HR MIN TEMP:  44; 6HR MAX TEMP:  64;

GILLETTE       FAIR      42  36  79 S16       30.07F
6HR MIN TEMP:  42; 6HR MAX TEMP:  58;

HULETT         FAIR      45  36  70 S9        30.08F
NEWCASTLE      FAIR      36  32  87 SE7       30.15S WCI  30

$$
WYZ014>020-022>026-101>103-220700-
CENTRAL WYOMING

CITY           SKY/WX    TMP DP  RH WIND       PRES   REMARKS
BIG PINEY      FAIR      35  23  61 N13       30.22R WCI  26
6HR MIN TEMP:  35; 6HR MAX TEMP:  60;

PINEDALE       FAIR      32  23  69 W13       30.22R WCI  22
DUBOIS         FAIR      36  23  60 W10       30.20R WCI  28
LANDER         FAIR      50  26  39 CALM      30.08F
6HR MIN TEMP:  48; 6HR MAX TEMP:  66; 6HR PCP: TRACE;

RIVERTON       FAIR      53  25  33 W21       30.08S
6HR MIN TEMP:  50; 6HR MAX TEMP:  65;

CASPER         FAIR      38  36  92 CALM      30.10R
6HR MIN TEMP:  37; 6HR MAX TEMP:  60;

DOUGLAS        FAIR      36  36 100 SE15      30.12S WCI  27
6HR MIN TEMP:  36; 6HR MAX TEMP:  54;


$$
WYZ021-027>030-104>119-220700-
SOUTHERN WYOMING

CITY           SKY/WX    TMP DP  RH WIND       PRES   REMARKS
EVANSTON       FAIR      43  26  51 SW6       30.25S
6HR MIN TEMP:  41; 6HR MAX TEMP:  60;

KEMMERER       FAIR      41  28  60 W6        30.24S
FORT BRIDGER   FAIR      46  27  47 W12       30.27R
ROCK SPRINGS   FAIR      44  24  45 W9        30.19R
6HR MIN TEMP:  44; 6HR MAX TEMP:  66;

DIXON          FAIR      38  32  79 CALM      30.22R
RAWLINS          N/A    N/A N/A N/A MISG      30.15R
SARATOGA       FAIR      36  30  80 SE8       30.19R WCI  29
LARAMIE        FAIR      29  29 100 S8        30.15S WCI  21
6HR MIN TEMP:  29; 6HR MAX TEMP:  41;

CHEYENNE       FAIR      34  33  96 SW9       30.14F WCI  27
6HR MIN TEMP:  34; 6HR MAX TEMP:  39;

TORRINGTON     FAIR      36  35  96 E9        30.14F WCI  29
6HR MIN TEMP:  36; 6HR MAX TEMP:  46;

PINE BLUFFS    MOCLDY    36  34  93 MISG      30.16F

$$




USA.gov is the U.S. government's official web portal to all federal, state and local government web resources and services.